Location: Beaurevoir
(49.9971°N, 3.3085°E)
Time: 06:54:37
(UTC+00:00)

Cosmos 1707 - Pass Details

Date: 23 May 2024
Orbit: 473 x 485 km, 82.5° (Epoch: 19 June)

Event Time Altitude Azimuth Distance (km) Brightness Sun altitude
Exits shadow 00:27:49 21° 261° (W) 1,131 4.2 -18.7°
Maximum altitude 00:28:54 25° 289° (WNW) 1,029 4.3 -18.7°
Drops below altitude 10° 00:31:59 10° 346° (NNW) 1,679 6.3 -18.6°
Sets 00:34:22 0° 0° (N) 2,562 7.8 -18.5°
